Location: Newark
(43.0000°N, 1.6781°W)
Time: 10:50:25
(UTC+00:00)

Explorer 7 - Pass Details

Date: 24 April 2021
Orbit: 484 x 677 km, 50.3° (Epoch: 07 May)

Event Time Altitude Azimuth Distance (km) Brightness Sun altitude
Rises 20:50:22 0° 283° (WNW) 2,652 11.4 -18.4°
Reaches altitude 10° 20:52:43 10° 294° (WNW) 1,794 10.6 -18.7°
Maximum altitude 20:56:21 30° 357° (N) 1,019 8.6 -19.2°
Enters shadow 21:00:02 11° 58° (ENE) 1,847 9.3 -19.7°
Drops below altitude 10° 21:00:11 10° 59° (ENE) 1,902 - -19.8°
Sets 21:02:46 0° 70° (ENE) 2,841 - -20.1°
